weather.gov     
National Weather Service

Regional Weather Roundup
NWS Homepage
This page is being discontinued on March 12, 2014.
The same data is available at this site. Please update your bookmarks.
Thank you, and we apologize for the inconvenience.
Please send an email to SR-SRH.Webmaster@noaa.gov with any concerns.


Current Version
Previous Version:    01  02  03  04  05  06  07  08  09  10  11  12  13  14  15  16  17  18  19  20  21  22  23  24  25  26  27  
[Printable]
941
ASUS42 KKEY 232010
RWRKEY

FLORIDA REGIONAL WEATHER ROUNDUP FOR THE FLORIDA KEYS
NATIONAL WEATHER SERVICE KEY WEST FLORIDA
300 PM EST SUN NOV 23 2014

...SOUTH FLORIDA AND THE KEYS...

CITY           SKY/WX    TMP DP  RH WIND       PRES   REMARKS
FORT MYERS     SUNNY     85  71  63 S13G21    29.88F HX  90
SW REGIONAL AP MOSUNNY   85  70  60 S16       29.89F
NAPLES         CLOUDY    84  72  67 SE18G26   29.89F
MIAMI          PTSUNNY   82  73  74 SE16G26   29.93F
WEST KENDALL   MOSUNNY   82  74  76 SE15      29.93F
HOMESTEAD      MOSUNNY   82  74  77 SE13      29.92F
MARATHON       MOSUNNY   83  77  82 SE7       29.90F HX  92
BOCA CHICA NAS MOSUNNY   81  75  82 SE12      29.89F
KEY WEST INTL  SUNNY     82  81  96 SE9       29.90F HX  95

...INTERNATIONAL WEATHER...

CITY           SKY/WX    TMP DP  RH WIND       PRES   REMARKS
NASSAU BAHAMAS MOSUNNY   82  73  74 SE14      29.97F
CANCUN MEXICO  PTSUNNY   84  73  70 SE16      29.83F HX  91
COZUMEL MEXICO MOSUNNY   81  75  83 SE8       29.84F

ADJACENT COASTAL WATERS...

STATION/POSITION TIME  SKY/WX   TEMP    WIND        PRES    WAVE
                                AIR SEA DIR/SP/G            HT/PER
                 (UTC)          (F)     (DEG/KT/KT) (MB)    (FT/S)
PULASKI SHOAL LI 1900            78     160/ 13/ 14 1012.1F
SAND KEY         2000            79     140/ 13/ 15 1012.2F
SOMBRERO KEY     2000            81     140/ 16/ 18 1013.3F
LONG KEY         1858            80 76  170/ 12/ 14 1013.9F
MOLASSES REEF    2000            80 78  150/ 14/ 17 1013.1F
FOWEY ROCKS      2000            80 78  130/ 18/ 19 1013.5F
Buoy 42080       NOT AVBL

$$




U.S. Dept. of Commerce
NOAA National Weather Service
1325 East West Highway
Silver Spring, MD 20910
E-mail: w-nws.webmaster@noaa.gov
Page last modified: May 16, 2007
NATIONAL WEATHER SERVICE: for Safety, for Work, for Fun - FOR LIFE